Precipitable_Water
0.64 0.65 0.63 0.60 0.58 0.58 0.58 0.56 0.52 0.50 0.51 0.53 0.54 0.56 0.57 0.60 0.64 0.68 0.71 0.75 0.79 0.81 0.82 0.86 0.87 0.92 0.97
0.57 0.59 0.56 0.57 0.55 0.53 0.52 0.49 0.46 0.45 0.45 0.47 0.48 0.50 0.52 0.54 0.57 0.61 0.65 0.67 0.69 0.73 0.75 0.78 0.80 0.81 0.84
0.51 0.56 0.53 0.54 0.49 0.45 0.45 0.42 0.44 0.41 0.39 0.39 0.40 0.42 0.45 0.50 0.53 0.54 0.56 0.60 0.63 0.64 0.65 0.66 0.67 0.69 0.71
0.48 0.46 0.43 0.43 0.41 0.36 0.33 0.35 0.33 0.32 0.29 0.30 0.29 0.30 0.32 0.35 0.39 0.42 0.46 0.49 0.50 0.53 0.56 0.57 0.57 0.58 0.60
0.38 0.37 0.34 0.32 0.29 0.30 0.26 0.25 0.25 0.26 0.25 0.25 0.24 0.24 0.23 0.25 0.26 0.25 0.25 0.26 0.29 0.34 0.38 0.42 0.46 0.49 0.51
0.33 0.31 0.30 0.29 0.30 0.27 0.25 0.22 0.20 0.29 0.24 0.21 0.24 0.22 0.23 0.23 0.25 0.25 0.25 0.25 0.24 0.24 0.24 0.25 0.27 0.27 0.28
0.30 0.29 0.29 0.31 0.31 0.28 0.26 0.25 0.23 0.26 0.25 0.19 0.25 0.23 0.27 0.28 0.30 0.31 0.31 0.31 0.31 0.32 0.32 0.32 0.31 0.29 0.29
0.32 0.33 0.34 0.34 0.32 0.30 0.28 0.27 0.27 0.27 0.27 0.21 0.26 0.27 0.30 0.32 0.36 0.36 0.36 0.36 0.36 0.36 0.36 0.35 0.36 0.35 0.35
0.34 0.33 0.31 0.31 0.30 0.28 0.26 0.24 0.23 0.25 0.30 0.28 0.29 0.30 0.33 0.35 0.37 0.38 0.38 0.37 0.35 0.33 0.32 0.32 0.32 0.34 0.35
0.32 0.33 0.32 0.31 0.31 0.29 0.28 0.25 0.25 0.26 0.32 0.30 0.31 0.32 0.30 0.36 0.37 0.36 0.31 0.30 0.30 0.30 0.31 0.31 0.31 0.31 0.30
0.33 0.33 0.33 0.33 0.33 0.33 0.32 0.30 0.28 0.28 0.35 0.35 0.33 0.33 0.32 0.31 0.29 0.27 0.28 0.28 0.27 0.27 0.28 0.30 0.32 0.33 0.30
0.34 0.33 0.33 0.33 0.34 0.35 0.36 0.36 0.36 0.34 0.37 0.37 0.33 0.33 0.31 0.24 0.21 0.26 0.26 0.25 0.25 0.24 0.26 0.28 0.30 0.31 0.32
0.35 0.35 0.36 0.38 0.39 0.38 0.39 0.38 0.37 0.38 0.38 0.38 0.37 0.35 0.29 0.24 0.22 0.22 0.22 0.23 0.24 0.27 0.27 0.27 0.28 0.29 0.27
0.37 0.37 0.39 0.40 0.39 0.37 0.35 0.36 0.34 0.34 0.38 0.38 0.37 0.32 0.26 0.25 0.24 0.22 0.23 0.21 0.23 0.26 0.27 0.27 0.28 0.29 0.29
0.37 0.37 0.37 0.38 0.37 0.37 0.35 0.35 0.33 0.31 0.31 0.33 0.32 0.30 0.28 0.26 0.23 0.23 0.23 0.24 0.26 0.26 0.26 0.25 0.26 0.28 0.29
0.37 0.37 0.36 0.37 0.37 0.36 0.35 0.34 0.32 0.32 0.31 0.30 0.30 0.26 0.25 0.26 0.28 0.24 0.25 0.25 0.26 0.26 0.26 0.24 0.22 0.25 0.26
0.38 0.37 0.37 0.37 0.37 0.35 0.34 0.34 0.32 0.31 0.31 0.31 0.29 0.25 0.22 0.20 0.25 0.30 0.25 0.25 0.25 0.24 0.25 0.24 0.22 0.23 0.25
Wind_Speed
22 22 21 21 20 17 16 15 14 14 14 14 14 14 14 13 13 13 12 12 11 12 12 13 13 15 17
22 21 20 19 17 16 14 14 14 14 14 14 15 15 15 15 16 16 16 15 15 15 14 15 16 17 17
18 18 18 17 15 15 15 15 15 15 15 15 15 16 16 17 17 17 17 17 18 18 19 19 19 19 19
17 17 17 16 16 16 15 15 15 16 16 16 17 17 18 18 17 17 17 17 18 18 19 19 19 19 19
17 17 16 16 16 16 15 16 16 16 17 18 18 18 18 17 17 18 19 19 20 20 21 21 21 21 22
17 16 16 15 15 15 16 16 16 17 18 17 17 17 17 17 17 18 18 19 20 20 21 22 23 23 24
16 16 15 16 16 16 16 17 17 18 18 17 17 17 17 18 18 18 19 19 19 20 20 21 22 23 24
15 15 15 16 17 17 17 17 17 17 17 17 18 18 19 19 18 19 19 19 19 20 21 22 23 25 26
15 15 16 17 17 17 17 17 17 17 18 18 18 19 19 19 18 18 19 20 21 21 22 23 25 27 28
15 15 16 16 16 17 17 17 18 18 18 19 19 19 19 19 19 20 20 20 22 22 24 25 27 29 30
15 15 16 16 17 17 18 18 19 20 20 19 19 19 19 20 20 20 20 21 24 25 27 28 28 29 30
16 16 17 18 18 18 19 19 20 21 21 21 20 20 20 20 20 21 24 26 26 28 29 29 30 30 30
17 18 18 19 19 20 21 22 22 21 22 22 21 22 21 21 23 25 26 27 30 27 31 33 32 32 31
19 19 19 20 20 21 21 21 22 22 22 22 23 23 23 24 26 28 29 29 31 33 33 33 32 32 31
20 20 21 21 22 22 22 22 22 23 23 23 24 25 26 27 28 30 31 33 33 34 34 33 32 32 31
22 22 22 23 23 23 23 23 24 24 24 25 25 26 27 28 31 31 32 33 34 34 34 34 33 33 33
23 24 24 24 24 24 24 24 25 25 25 26 26 26 27 29 30 32 33 34 35 35 35 35 36 34 33
Wind_Direction
283 286 289 292 293 292 293 292 294 298 298 299 298 297 297 296 295 296 297 292 287 281 281 273 268 271 270
281 283 286 288 286 287 288 290 292 295 297 297 296 295 293 293 292 289 288 285 283 280 281 276 272 273 276
276 279 282 282 283 284 284 289 289 292 295 296 296 295 294 292 290 289 287 284 281 279 278 277 276 275 274
275 276 279 279 281 283 285 287 288 291 294 294 295 294 293 291 290 288 286 285 283 282 280 278 276 275 273
274 276 276 279 280 282 284 286 286 291 293 294 293 293 292 290 288 288 287 286 284 282 280 278 276 275 274
273 273 276 277 280 282 284 287 287 290 295 294 294 294 293 291 291 291 290 288 286 284 282 280 278 276 274
270 274 275 278 280 282 284 286 287 290 292 291 293 293 292 292 292 292 294 290 288 288 286 284 281 279 277
273 275 277 280 281 283 284 286 289 289 292 290 292 292 293 292 290 293 293 292 292 291 289 288 286 282 280
275 278 280 282 282 283 285 288 288 289 292 292 292 293 292 291 291 292 292 293 294 294 293 292 290 287 283
278 280 283 284 285 285 284 286 287 290 290 292 292 294 292 290 291 293 293 294 295 296 296 296 294 291 287
278 283 286 287 287 287 287 287 287 287 289 290 290 292 292 291 292 292 294 296 297 297 297 298 296 294 290
281 285 288 289 288 288 288 288 288 287 286 288 288 289 290 291 291 292 294 297 297 297 298 298 298 295 291
282 286 288 290 289 289 289 289 289 288 285 285 286 288 287 288 291 294 297 296 298 296 298 298 296 293 291
282 286 288 289 290 291 290 289 289 288 286 286 286 286 287 289 291 293 295 296 296 297 298 297 296 293 289
281 284 286 288 290 291 290 289 286 287 288 289 289 287 287 290 293 294 295 296 297 298 298 297 295 293 290
281 283 285 288 289 290 290 289 287 287 288 289 291 291 292 293 292 295 297 298 298 299 297 295 294 293 291
280 282 285 287 288 288 289 289 288 288 288 289 291 291 293 295 297 295 297 299 300 298 297 295 294 292 290